Tracking 30107 objects as of 18-Jan-2025
HD Live streaming from Space Station
objects crossing your sky now

SL-14 DEB

Track SL-14 DEB now!
10-day predictions


NORAD ID: 26007
Int'l Code: 1991-068S
Perigee: 1,470.1 km
Apogee: 1,486.9 km
Inclination: 82.7 °
Period: 115.4 minutes
Semi major axis: 7849 km
RCS: 0.1171 m2 (medium)
Launch date: September 28, 1991
Source: Commonwealth of Independent States (former USSR) (CIS)
Launch site: PLESETSK MISSILE AND SPACE COMPLEX (PKMTR)

Note: This is SATELLITE DEBRIS
Your satellite tracking list
Your tracking list is empty




NASA's NSSDC Master Catalog

Two Line Element Set (TLE):
1 26007U 91068S   25017.30093728 -.00000002  00000-0 -83939-4 0  9996
2 26007  82.6963 209.1226 0010730 236.4213 301.9721 12.48354140151568
Source of the keplerian elements: AFSPC